Simultaneous Nadir Overpasses (SNOs) Predictions

Prediction of SNOs between METOP-C and LANDSAT-8 Satellite Orbit:

Table of predicted SNOs for the next 14.0 days since TLE Epoch: 8/15/2020
Index Date (METOP-C) Time (METOP-C) Lat,Lon (METOP-C) SZA (METOP-C ) Date (LANDSAT-8) Time (LANDSAT-8) Lat,Lon (LANDSAT-8) SZA (LANDSAT-8 ) Distance(km) Time Diff (sec)
1 08/16/2020 11:12:58 -81.13,-128.29 110.37 08/16/2020 11:13:55 -81.13,-128.31 110.35 0.38 57
2 08/16/2020 12:03:37 81.16, 39.97 69.77 08/16/2020 12:03:20 81.16, 39.78 69.73 3.29 17
3 08/19/2020 06:47:19 -81.13, -61.85 109.44 08/19/2020 06:48:12 -81.13, -61.83 109.42 0.37 53
4 08/19/2020 07:37:58 81.16, 106.37 70.69 08/19/2020 07:37:37 81.16, 106.22 70.66 2.50 21
5 08/22/2020 02:21:38 -81.15, 4.96 108.45 08/22/2020 02:22:28 -81.14, 4.78 108.44 3.02 50
6 08/22/2020 03:12:19 81.15, 172.38 71.58 08/22/2020 03:11:54 81.15, 172.44 71.58 1.06 25
7 08/24/2020 21:56:00 -81.13, 71.01 107.52 08/24/2020 21:56:46 -81.14, 71.16 107.48 2.78 46
8 08/24/2020 22:46:39 81.16,-120.85 72.60 08/24/2020 22:46:11 81.16,-120.84 72.60 0.53 28
9 08/27/2020 17:30:20 -81.15, 137.81 106.47 08/27/2020 17:31:04 -81.15, 137.68 106.46 2.24 44
